Regional Weather Roundup
Issued by NWS Jackson, KY

Home | Current Version | Previous Version | Text Only | Print | Product List | Glossary Off
Versions: 1 2 3 4 5 6 7 8 9 10 11 12 13 14 15 16 17 18 19 20 21 22 23 24 25 26 27 28 29 30 31 32 33 34 35 36 37 38 39 40 41 42 43 44 45 46 47 48 49 50

000
ASUS43 KJKL 030210
RWRJKL

EAST KENTUCKY HOURLY WEATHER ROUNDUP
NATIONAL WEATHER SERVICE JACKSON KY
1000 PM EDT SAT MAY 02 2015

NOTE: "FAIR" INDICATES FEW OR NO CLOUDS BELOW 12,000 FEET WITH
NO SIGNIFICANT WEATHER AND/OR OBSTRUCTIONS TO VISIBILITY.

* THESE REPORTS ARE NOT UNDER NWS QUALITY CONTROL AND MAY NOT
  REPORT WEATHER SUCH AS PRECIPITATION AND FOG.

KYZ079-080-083-085-087-088-110-112-115-119-120-030300
...EASTERN KENTUCKY...

CITY           SKY/WX    TMP DP  RH WIND       PRES   REMARKS
JACKSON        CLEAR     65  34  31 CALM      30.11R
LONDON         CLEAR     59  42  53 CALM      30.10R
SOMERSET*      CLEAR     57  45  62 CALM      30.11R
MONTICELLO*    CLEAR     55  47  74 CALM      30.13R
MIDDLESBORO*   CLEAR     56  44  65 CALM      30.12R
HARLAN APT*    CLEAR     55  41  58 CALM      30.12R
HAZARD APT*    CLEAR     61  41  48 CALM      30.11R
BLACK MTN*       N/A     52  36  54 N2          N/A
PIKEVILLE APT* CLEAR     64  36  34 SE3       30.11R
BIG SANDY*     CLEAR     60  42  50 CALM      30.11R
MOREHEAD APT*  CLEAR     64  41  42 CALM      30.11R
$$

KYZ035-036-041-042-044-050-067-078-099-030300
...CENTRAL KENTUCKY...

CITY           SKY/WX    TMP DP  RH WIND       PRES   REMARKS
MT STERLING*   CLEAR     55  46  71 CALM      30.11R
FLEMING/MASON* CLEAR     63  45  51 S6        30.10R
DANVILLE*      CLEAR     57  45  62 CALM      30.11R
RICHMOND*      CLEAR     64  37  36 CALM      30.09R
LEXINGTON      CLEAR     64  43  46 S3        30.09R
FRANKFORT      CLEAR     60  45  57 CALM      30.07R
$$

KYZ091>093-OHZ055-061-077-WVZ005-015-034-035-042-030300
...SOUTHERN OHIO/WEST VIRGINIA...

CITY           SKY/WX    TMP DP  RH WIND       PRES   REMARKS
COVINGTON      PTCLDY    63  42  46 CALM      30.07R
COLUMBUS       MOCLDY    65  40  39 S3        30.05R
DAYTON         PTCLDY    64  41  42 W5        30.07R
WILMINGTON     CLEAR     60  43  53 S3        30.07R
HUNTINGTON     CLEAR     61  42  49 CALM      30.08R
CHARLESTON     PTCLDY    60  39  45 CALM      30.09R
PINEVILLE*     CLEAR     50  44  79 MISG      30.18R
BECKLEY        CLEAR     53  34  48 SE3       30.14R
BLUEFIELD      PTCLDY    56  33  42 W5        30.16R
$$

VAZ002-007-008-TNZ017-027-036-066-071-030300
...SOUTHWEST VIRGINIA/EAST TENNESSEE...

CITY           SKY/WX    TMP DP  RH WIND       PRES   REMARKS
WISE*          CLEAR     59  30  33 CALM      30.16R
JONESVILLE*    CLEAR     54  45  71 CALM      30.13R
ABINGDON*      PTCLDY    54  42  63 CALM      30.13R
BRISTOL        PTCLDY    53  42  66 N3        30.11R
KNOXVILLE      CLEAR     64  44  48 CALM      30.09R
OAK RIDGE      CLEAR     60  48  64 CALM      30.11R
CROSSVILLE     CLEAR     58  41  53 CALM      30.12R
NASHVILLE      MOCLDY    66  47  50 CALM      30.08R
$$

...KEY TO REMARKS...
VSB - VISIBILITY IN MILES
WCI - WIND CHILL INDEX
HX  - HEAT INDEX

$$


USA.gov is the U.S. government's official web portal to all federal, state and local government web resources and services.